Tracking 27126 objects as of 30-Mar-2023
HD Live streaming from Space Station
objects crossing your sky now

SL-8 DEB

Track SL-8 DEB now!
10-day predictions


NORAD ID: 22025
Int'l Code: 1991-009CJ
Perigee: 1,435.5 km
Apogee: 1,664.5 km
Inclination: 73.9 °
Period: 116.9 minutes
Semi major axis: 7920 km
RCS: 0.0299 m2 (small)
Launch date: February 12, 1991
Source: Commonwealth of Independent States (former USSR) (CIS)
Launch site: PLESETSK MISSILE AND SPACE COMPLEX (PKMTR)

Note: This is SATELLITE DEBRIS
Your satellite tracking list
Your tracking list is empty




NASA's NSSDC Master Catalog

Two Line Element Set (TLE):
1 22025U 91009CJ  23088.22949310  .00000093  00000-0  88515-3 0  9993
2 22025  73.9419 180.4514 0144554 263.8212 121.7902 12.31505153440563
Source of the keplerian elements: AFSPC